Location: Aiyekoto
(8.4333°N, 4.3667°E)
Time: 21:19:19
(UTC+00:00)

Delta 2 Rocket - Pass Details

Date: 07 June 2020
Orbit: 416 x 807 km, 35.6° (Epoch: 10 July)

Event Time Altitude Azimuth Distance (km) Brightness Sun altitude
Exits shadow 04:53:35 - 245° (WSW) 2,359 5.8 -7.6°
Reaches altitude 10° 04:53:48 10° 245° (WSW) 2,282 5.8 -7.6°
Maximum altitude 04:59:11 59° 324° (NW) 905 4.4 -6.3°
Drops below altitude 10° 05:04:49 10° 44° (NE) 2,374 7.9 -5.1°
Sets 05:07:22 0° 47° (NE) 3,299 9.0 -4.5°
